This is the latest recevied weather packets stored in our database for station/object W9WRP. If no packets are shown the sender has not sent any weather packets the latest 10 day(s).
| Time | Temp. | Humidity | Pressure | Rain* | Wind** | Luminosity | Snow |
|---|---|---|---|---|---|---|---|
| 1787955677 | 43.89° C | 19% | 1012.6 hPa | 0 mm | - | 438 W/m² | - |
| 1787955373 | 43.33° C | 20% | 1013.1 hPa | 0 mm | - | 446 W/m² | - |
| 1787955071 | 43.89° C | 19% | 1012.7 hPa | 0 mm | - | 498 W/m² | - |
| 1787954762 | 43.33° C | 20% | 1013.2 hPa | 0 mm | - | 495 W/m² | - |
| 1787954457 | 43.89° C | 19% | 1013.1 hPa | 0 mm | - | 526 W/m² | - |
| 1787954151 | 43.89° C | 19% | 1013.1 hPa | 0 mm | - | 499 W/m² | - |
| 1787953850 | 43.33° C | 20% | 1013.3 hPa | 0 mm | - | 523 W/m² | - |
| 1787953544 | 43.33° C | 20% | 1013.3 hPa | 0 mm | - | 479 W/m² | - |
| 1787953244 | 43.33° C | 20% | 1013.4 hPa | 0 mm | - | 432 W/m² | - |
| 1787952941 | 43.33° C | 20% | 1013.6 hPa | 0 mm | - | 515 W/m² | - |
| 1787952636 | 43.33° C | 21% | 1013.8 hPa | 0 mm | - | 574 W/m² | - |
| 1787952335 | 42.78° C | 21% | 1014 hPa | 0 mm | - | 485 W/m² | - |
| 1787952027 | 43.33° C | 21% | 1013.8 hPa | 0 mm | - | 409 W/m² | - |
| 1787951726 | 43.33° C | 21% | 1013.9 hPa | 0 mm | - | 556 W/m² | - |
| 1787951422 | 43.33° C | 20% | 1013.8 hPa | 0 mm | - | 566 W/m² | - |
| 1787951118 | 43.33° C | 20% | 1014.1 hPa | 0 mm | - | 605 W/m² | - |
| 1787950814 | 43.33° C | 21% | 1014.3 hPa | 0 mm | - | 663 W/m² | - |
| 1787950509 | 42.78° C | 21% | 1014.2 hPa | 0 mm | - | 684 W/m² | - |
| 1787950206 | 41.11° C | 22% | 1014.4 hPa | 0 mm | - | 700 W/m² | - |
| 1787949902 | 41.67° C | 22% | 1014.4 hPa | 0 mm | - | 641 W/m² | - |
| 1787949596 | 41.67° C | 22% | 1014.8 hPa | 0 mm | - | 576 W/m² | - |
| 1787949291 | 40.56° C | 23% | 1014.7 hPa | 0 mm | - | 332 W/m² | - |
| 1787948986 | 41.11° C | 23% | 1014.8 hPa | 0 mm | - | 435 W/m² | - |
| 1787948681 | 40.56° C | 23% | 1014.8 hPa | 0 mm | - | 493 W/m² | - |
| 1787948371 | 41.11° C | 23% | 1014.8 hPa | 0 mm | - | 395 W/m² | - |
* Rain latest hour (hover to see other rain measurements)
** Current wind speed in m/s (hover to see current wind gust speed)